DW9852 Weather Reports


Display with metric or nautical units.
time (UTC)temp
F
wind
direction
speed
MPH
gust
MPH
rain 1hr
in
rain 24hr
in
rain mn
in
humidity
%
barometer
mb
20260510201037 88 206 4.0 11.0 0.00 0.00 0.00 62 1014.3
20260510200540 87 197 5.0 10.0 0.00 0.00 0.00 62 1014.3
20260510200041 88 79 3.0 10.0 0.00 0.00 0.00 61 1014.3
20260510195539 88 169 2.0 8.0 0.00 0.00 0.00 64 1014.4
20260510195039 87 23 1.0 12.0 0.00 0.00 0.00 64 1014.5
20260510194552 87 50 3.0 12.0 0.00 0.00 0.00 63 1014.6
20260510194040 87 184 6.0 12.0 0.00 0.00 0.00 62 1014.7
20260510193540 87 181 3.0 12.0 0.00 0.00 0.00 64 1014.7
20260510193054 86 18 4.0 10.0 0.00 0.00 0.00 63 1014.7
20260510192539 86 116 5.0 10.0 0.00 0.00 0.00 64 1014.8
20260510192039 86 188 4.0 10.0 0.00 0.00 0.00 65 1014.9
20260510191553 86 204 3.0 10.0 0.00 0.00 0.00 64 1014.9
20260510191041 86 34 4.0 13.0 0.00 0.00 0.00 65 1014.9
20260510190536 86 43 5.0 13.0 0.00 0.00 0.00 63 1015.0
20260510190049 86 46 5.0 12.0 0.00 0.00 0.00 65 1015.0
20260510185539 86 28 2.0 12.0 0.00 0.00 0.00 67 1015.0
20260510185039 85 131 4.0 12.0 0.00 0.00 0.00 65 1015.2
20260510184547 85 165 5.0 12.0 0.00 0.00 0.00 64 1015.3
20260510184043 86 91 5.0 11.0 0.00 0.00 0.00 64 1015.3
20260510183541 85 31 4.0 13.0 0.00 0.00 0.00 67 1015.4
20260510183041 85 197 2.0 13.0 0.00 0.00 0.00 69 1015.4
20260510182538 85 64 4.0 13.0 0.00 0.00 0.00 68 1015.5
20260510182039 85 46 2.0 8.0 0.00 0.00 0.00 68 1015.6
20260510181605 85 202 2.0 8.0 0.00 0.00 0.00 69 1015.7
20260510181044 84 93 2.0 10.0 0.00 0.00 0.00 70 1015.8
20260510180540 83 39 2.0 10.0 0.00 0.00 0.00 71 1015.9
20260510175539 83 169 4.0 13.0 0.00 0.00 0.00 72 1016.0
20260510175037 83 67 4.0 13.0 0.00 0.00 0.00 72 1016.1
20260510174549 83 204 4.0 13.0 0.00 0.00 0.00 74 1016.0
20260510174038 82 142 5.0 12.0 0.00 0.00 0.00 74 1016.1
20260510173538 83 139 6.0 12.0 0.00 0.00 0.00 73 1016.0
20260510173050 83 203 4.0 9.0 0.00 0.00 0.00 73 1016.0
20260510172539 83 186 4.0 10.0 0.00 0.00 0.00 77 1016.1
20260510172039 82 29 3.0 10.0 0.00 0.00 0.00 74 1016.0
20260510171548 83 51 3.0 10.0 0.00 0.00 0.00 74 1016.0
20260510171039 82 32 4.0 12.0 0.00 0.00 0.00 75 1015.9
20260510170539 82 75 5.0 12.0 0.00 0.00 0.00 74 1015.9
20260510170048 82 156 5.0 13.0 0.00 0.00 0.00 75 1016.0
20260510165539 82 48 4.0 13.0 0.00 0.00 0.00 74 1016.0
20260510165038 81 59 4.0 13.0 0.00 0.00 0.00 76 1016.0
20260510164548 81 44 4.0 13.0 0.00 0.00 0.00 77 1015.8
20260510164040 81 40 5.0 13.0 0.00 0.00 0.00 75 1015.7
20260510163539 82 57 5.0 11.0 0.00 0.00 0.00 75 1015.8
20260510163045 82 79 5.0 11.0 0.00 0.00 0.00 74 1015.8
20260510162538 82 43 2.0 8.0 0.00 0.00 0.00 74 1015.8
20260510162038 82 83 4.0 8.0 0.00 0.00 0.00 72 1015.8
20260510161550 82 37 3.0 8.0 0.00 0.00 0.00 73 1015.6
20260510161039 82 11 4.0 8.0 0.00 0.00 0.00 74 1015.6
20260510160540 82 0 3.0 8.0 0.00 0.00 0.00 73 1015.7
20260510160049 81 0 2.0 8.0 0.00 0.00 0.00 74 1015.5
20260510155540 81 82 3.0 7.0 0.00 0.00 0.00 75 1015.6
20260510155038 81 59 1.0 8.0 0.00 0.00 0.00 76 1015.6
20260510154554 81 138 3.0 8.0 0.00 0.00 0.00 75 1015.6
20260510154040 81 25 2.0 6.0 0.00 0.00 0.00 75 1015.5
20260510153542 81 167 1.0 5.0 0.00 0.00 0.00 75 1015.4
20260510153052 80 42 3.0 5.0 0.00 0.00 0.00 75 1015.4
20260510152539 81 37 0.0 6.0 0.00 0.00 0.00 76 1015.4
20260510152039 80 178 2.0 6.0 0.00 0.00 0.00 75 1015.2
20260510151546 80 204 0.0 4.0 0.00 0.00 0.00 78 1015.1
20260510151039 80 0 1.0 4.0 0.00 0.00 0.00 78 1015.2
20260510150537 80 0 0.0 2.0 0.00 0.00 0.00 78 1015.1
20260510150103 0 0.0 0.0 0.00 0.00 0.00 1015.1
20260510145538 0 0.0 0.0 0.00 0.00 0.00 1015.1
20260510145041 0 0.0 0.0 0.00 0.00 0.00 1015.1
20260510144546 0 0.0 0.0 0.00 0.00 0.00 1015.1
20260510144040 0 0.0 0.0 0.00 0.00 0.00 1015.1
20260510143538 0 0.0 0.0 0.00 0.00 0.00 1015.1
20260510143049 0 0.0 0.0 0.00 0.00 0.00 1015.0
20260510142540 0 0.0 0.0 0.00 0.00 0.00 1015.0
20260510142039 0 0.0 0.0 0.00 0.00 0.00 1014.9
20260510141544 0 0.0 0.0 0.00 0.00 0.00 1014.9
20260510141041 0 0.0 0.0 0.00 0.00 0.00 1014.8
20260510140540 0 0.0 0.0 0.00 0.00 0.00 1014.9
20260510140050 0 0.0 0.0 0.00 0.00 0.00 1014.8
20260510135539 0 0.0 0.0 0.00 0.00 0.00 1014.6
20260510135040 0 0.0 0.0 0.00 0.00 0.00 1014.7
20260510134551 0 0.0 0.0 0.00 0.00 0.00 1014.8
20260510134038 0 0.0 0.0 0.00 0.00 0.00 1014.7
20260510133538 0 0.0 0.0 0.00 0.00 0.00 1014.7
20260510133050 0 0.0 0.0 0.00 0.00 0.00 1014.7
20260510132540 0 0.0 0.0 0.00 0.00 0.00 1014.5
20260510132042 0 0.0 0.0 0.00 0.00 0.00 1014.5
20260510131549 0 0.0 0.0 0.00 0.00 0.00 1014.3
20260510131040 0 0.0 0.0 0.00 0.00 0.00 1014.3
20260510130539 0 0.0 0.0 0.00 0.00 0.00 1014.2
20260510130049 0 0.0 0.0 0.00 0.00 0.00 1014.2
20260510125538 0 0.0 0.0 0.00 0.00 0.00 1014.1
20260510125038 0 0.0 0.0 0.00 0.00 0.00 1014.2
20260510124550 0 0.0 0.0 0.00 0.00 0.00 1014.2
20260510124040 0 0.0 0.0 0.00 0.00 0.00 1014.2
20260510123539 0 0.0 0.0 0.00 0.00 0.00 1014.2
20260510123046 0 0.0 0.0 0.00 0.00 0.00 1014.1
20260510122538 0 0.0 0.0 0.00 0.00 0.00 1014.0
20260510122038 0 0.0 0.0 0.00 0.00 0.00 1013.9
20260510121551 0 0.0 0.0 0.00 0.00 0.00 1013.8
20260510121040 0 0.0 0.0 0.00 0.00 0.00 1013.7
20260510120538 0 0.0 0.0 0.00 0.00 0.00 1013.7
20260510120051 0 0.0 0.0 0.00 0.00 0.00 1013.8
20260510115539 0 0.0 0.0 0.00 0.00 0.00 1013.7
20260510115039 0 0.0 0.0 0.00 0.00 0.00 1013.7
20260510114554 0 0.0 0.0 0.00 0.00 0.00 1013.7
20260510114038 0 0.0 0.0 0.00 0.00 0.00 1013.7
20260510113539 0 0.0 0.0 0.00 0.00 0.00 1013.7
20260510113051 0 0.0 0.0 0.00 0.00 0.00 1013.7
20260510112543 0 0.0 0.0 0.00 0.00 0.00 1013.7
20260510112039 0 0.0 0.0 0.00 0.00 0.00 1013.7
20260510111601 0 0.0 0.0 0.00 0.00 0.00 1013.7
20260510111038 0 0.0 0.0 0.00 0.00 0.00 1013.7
20260510110536 0 0.0 0.0 0.00 0.00 0.00 1013.7
20260510110045 0 0.0 0.0 0.00 0.00 0.00 1013.8
20260510105538 0 0.0 0.0 0.00 0.00 0.00 1013.8
20260510105036 0 0.0 0.0 0.00 0.00 0.00 1013.9
20260510104547 0 0.0 0.0 0.00 0.00 0.00 1013.9
20260510104039 0 0.0 0.0 0.00 0.00 0.00 1014.0
20260510103541 0 0.0 0.0 0.00 0.00 0.00 1013.9
20260510103047 0 0.0 0.0 0.00 0.00 0.00 1013.9
20260510102539 0 0.0 0.0 0.00 0.00 0.00 1013.9
20260510102042 0 0.0 0.0 0.00 0.00 0.00 1013.9
20260510101544 0 0.0 0.0 0.00 0.00 0.00 1013.8
20260510101038 0 0.0 0.0 0.00 0.00 0.00 1014.1
20260510100539 0 0.0 0.0 0.00 0.00 0.00 1014.0
20260510100052 0 0.0 0.0 0.00 0.00 0.00 1013.9
20260510095540 0 0.0 0.0 0.00 0.00 0.00 1013.7
20260510095037 0 0.0 0.0 0.00 0.00 0.00 1013.8
20260510094559 0 0.0 0.0 0.00 0.00 0.00 1013.7
20260510094039 0 0.0 0.0 0.00 0.00 0.00 1013.7
20260510093538 0 0.0 0.0 0.00 0.00 0.00 84 1013.6
20260510093105 0 0.0 0.0 0.00 0.00 0.00 84 1013.5
20260510092538 71 0 0.0 2.0 0.00 0.00 0.00 84 1013.5
20260510092042 71 0 0.0 1.0 0.00 0.00 0.00 84 1013.5
20260510091547 71 0 0.0 1.0 0.00 0.00 0.00 85 1013.5
20260510091039 70 0 0.0 0.0 0.00 0.00 0.00 85 1013.5
20260510090537 71 0 0.0 0.0 0.00 0.00 0.00 84 1013.6
20260510090047 71 0 0.0 0.0 0.00 0.00 0.00 84 1013.6
20260510085539 71 0 0.0 0.0 0.00 0.00 0.00 83 1013.4
20260510085038 72 0 0.0 1.0 0.00 0.00 0.00 82 1013.5
20260510084546 72 0 0.0 1.0 0.00 0.00 0.00 82 1013.4
20260510084039 72 0 0.0 0.0 0.00 0.00 0.00 82 1013.5
20260510083539 72 0 0.0 0.0 0.00 0.00 0.00 82 1013.4
20260510083055 72 0 0.0 0.0 0.00 0.00 0.00 81 1013.3
20260510082539 72 0 0.0 0.0 0.00 0.00 0.00 81 1013.4
20260510082039 72 0 0.0 0.0 0.00 0.00 0.00 81 1013.3
20260510081548 72 0 0.0 1.0 0.00 0.00 0.00 81 1013.2
20260510081039 73 0 0.0 1.0 0.00 0.00 0.00 80 1013.3
20260510080541 73 0 0.0 1.0 0.00 0.00 0.00 80 1013.4
20260510080046 73 0 0.0 0.0 0.00 0.00 0.00 80 1013.4
20260510075539 73 0 0.0 0.0 0.00 0.00 0.00 80 1013.4
20260510075039 73 0 0.0 0.0 0.00 0.00 0.00 80 1013.3
20260510074552 73 0 0.0 0.0 0.00 0.00 0.00 79 1013.3
20260510074039 73 0 0.0 0.0 0.00 0.00 0.00 79 1013.3
20260510073538 74 0 0.0 0.0 0.00 0.00 0.00 80 1013.2
20260510073055 73 0 0.0 0.0 0.00 0.00 0.00 80 1013.2
20260510072538 74 0 0.0 0.0 0.00 0.00 0.00 80 1013.3
20260510072039 74 0 0.0 0.0 0.00 0.00 0.00 79 1013.3
20260510071546 74 0 0.0 0.0 0.00 0.00 0.00 79 1013.3
20260510071041 74 0 0.0 1.0 0.00 0.00 0.00 79 1013.4
20260510070541 75 0 0.0 1.0 0.00 0.00 0.00 79 1013.3
20260510070049 75 0 0.0 1.0 0.00 0.00 0.00 79 1013.3
20260510065544 75 0 0.0 1.0 0.00 0.00 0.00 79 1013.4
20260510065039 75 0 0.0 1.0 0.00 0.00 0.00 79 1013.4
20260510064558 75 0 0.0 1.0 0.00 0.00 0.00 79 1013.3
20260510064040 75 0 0.0 1.0 0.00 0.00 0.00 79 1013.4
20260510063539 75 0 0.0 0.0 0.00 0.00 0.00 78 1013.3
20260510063042 76 0 0.0 0.0 0.00 0.00 0.00 78 1013.4
20260510062542 76 0 0.0 1.0 0.00 0.00 0.00 77 1013.5
20260510062040 76 0 0.0 1.0 0.00 0.00 0.00 78 1013.4
20260510061555 76 0 0.0 1.0 0.00 0.00 0.00 77 1013.5
20260510061040 76 0 0.0 1.0 0.00 0.00 0.00 77 1013.5
20260510060540 76 0 0.0 1.0 0.00 0.00 0.00 77 1013.4
20260510060048 77 221 0.0 1.0 0.00 0.00 0.00 76 1013.4
20260510055539 77 0 0.0 4.0 0.00 0.00 0.00 76 1013.5
20260510055041 77 0 0.0 4.0 0.00 0.00 0.00 76 1013.5
20260510054547 77 0 0.0 2.0 0.00 0.00 0.00 76 1013.3
20260510054038 77 0 0.0 2.0 0.00 0.00 0.00 76 1013.3
20260510053540 77 0 0.0 1.0 0.00 0.00 0.00 76 1013.3
20260510053049 77 0 0.0 1.0 0.00 0.00 0.00 75 1013.2
20260510052539 78 0 0.0 4.0 0.00 0.00 0.00 75 1013.1
20260510052040 78 0 0.0 4.0 0.00 0.00 0.00 74 1013.1
20260510051603 78 0 0.0 4.0 0.00 0.00 0.00 74 1013.1
20260510051038 78 0 0.0 4.0 0.00 0.00 0.00 73 1013.0
20260510050538 78 0 0.0 1.0 0.00 0.00 0.00 73 1013.0
20260510050050 79 0 0.0 1.0 0.00 0.00 0.00 72 1012.8
20260510045539 79 0 0.0 2.0 0.00 0.00 0.00 72 1012.9
20260510045040 79 0 0.0 3.0 0.00 0.00 0.00 72 1012.8
20260510044555 79 0 0.0 5.0 0.00 0.00 0.00 71 1012.8
20260510044038 79 0 1.0 5.0 0.00 0.00 0.00 71 1012.7
20260510043539 80 248 1.0 4.0 0.00 0.00 0.00 71 1012.8
20260510043048 80 91 1.0 10.0 0.00 0.00 0.00 70 1012.7
20260510042541 80 0 1.0 10.0 0.00 0.00 0.00 70 1012.7
20260510042039 80 203 3.0 9.0 0.00 0.00 0.00 69 1012.8
20260510041544 80 0 0.0 5.0 0.00 0.00 0.00 69 1012.7
20260510041039 80 82 0.0 5.0 0.00 0.00 0.00 69 1012.7
20260510040539 80 32 1.0 4.0 0.00 0.00 0.00 69 1012.6
20260510040056 81 0 1.0 3.0 0.00 0.00 0.00 69 1012.6
20260510035538 81 91 0.0 1.0 0.00 0.00 0.00 69 1012.5
20260510035038 81 0 0.0 1.0 0.00 0.00 0.00 68 1012.3
20260510034547 81 0 0.0 1.0 0.00 0.00 0.00 68 1012.3
20260510034040 81 0 0.0 4.0 0.00 0.00 0.00 68 1012.3
20260510033539 81 0 0.0 4.0 0.00 0.00 0.00 68 1012.2
20260510033058 81 0 0.0 4.0 0.00 0.00 0.00 68 1012.4
20260510032543 81 196 1.0 4.0 0.00 0.00 0.00 68 1012.3
20260510032039 81 93 0.0 3.0 0.00 0.00 0.00 68 1012.3
20260510031547 82 204 0.0 3.0 0.00 0.00 0.00 68 1012.2
20260510031040 82 0 0.0 3.0 0.00 0.00 0.00 67 1012.2
20260510030539 82 162 1.0 3.0 0.00 0.00 0.00 67 1012.2
20260510030053 82 90 0.0 3.0 0.00 0.00 0.00 67 1012.0
20260510025539 82 0 0.0 4.0 0.00 0.00 0.00 67 1012.0
20260510025039 82 0 0.0 4.0 0.00 0.00 0.00 67 1011.9
20260510024544 82 141 1.0 3.0 0.00 0.00 0.00 66 1012.0
20260510024038 82 86 1.0 3.0 0.00 0.00 0.00 66 1012.0
20260510023538 83 0 0.0 3.0 0.00 0.00 0.00 65 1011.8
20260510023050 83 0 0.0 3.0 0.00 0.00 0.00 66 1011.8
20260510022542 83 0 0.0 3.0 0.00 0.00 0.00 65 1011.7
20260510022040 83 0 0.0 3.0 0.00 0.00 0.00 65 1011.7
20260510021548 83 0 0.0 4.0 0.00 0.00 0.00 64 1011.5
20260510021039 83 207 0.0 5.0 0.00 0.00 0.00 64 1011.4
20260510020542 83 117 0.0 5.0 0.00 0.00 0.00 64 1011.5
20260510020053 84 206 1.0 5.0 0.00 0.00 0.00 63 1011.3
20260510015540 84 219 1.0 5.0 0.00 0.00 0.00 63 1011.3
20260510015039 84 0 0.0 4.0 0.00 0.00 0.00 63 1011.2
20260510014553 84 0 0.0 7.0 0.00 0.00 0.00 62 1011.2
20260510014040 84 105 2.0 7.0 0.00 0.00 0.00 62 1011.1
20260510013540 85 186 2.0 7.0 0.00 0.00 0.00 62 1011.0
20260510013049 85 133 2.0 7.0 0.00 0.00 0.00 61 1010.7
20260510012540 85 78 3.0 7.0 0.00 0.00 0.00 61 1010.7
20260510012038 85 134 2.0 5.0 0.00 0.00 0.00 61 1010.7
20260510011549 86 125 2.0 8.0 0.00 0.00 0.00 61 1010.6
20260510011039 86 0 1.0 8.0 0.00 0.00 0.00 61 1010.5
20260510010542 87 203 3.0 8.0 0.00 0.00 0.00 60 1010.4
20260510010048 87 118 0.0 2.0 0.00 0.00 0.00 57 1010.6
20260510005539 87 210 0.0 3.0 0.00 0.00 0.00 56 1010.4
20260510005039 88 217 0.0 3.0 0.00 0.00 0.00 55 1010.4
20260510004550 88 0 0.0 5.0 0.00 0.00 0.00 55 1010.4
20260510004039 89 0 0.0 5.0 0.00 0.00 0.00 55 1010.4
20260510003540 89 84 1.0 6.0 0.00 0.00 0.00 54 1010.2
20260510003048 89 0 1.0 6.0 0.00 0.00 0.00 54 1010.2
20260510002538 89 236 3.0 6.0 0.00 0.00 0.00 53 1010.0
20260510002041 90 255 2.0 6.0 0.00 0.00 0.00 53 1009.8
20260510001543 90 269 2.0 6.0 0.00 0.00 0.00 52 1009.9
20260510001039 91 0 0.0 6.0 0.00 0.00 0.00 52 1009.9
20260510000541 91 0 3.0 6.0 0.00 0.00 0.00 52 1009.7
20260510000049 91 247 0.0 8.0 0.00 0.00 0.00 52 1009.8
20260509235539 91 210 1.0 8.0 0.00 0.00 0.00 52 1009.7
20260509235038 91 231 1.0 8.0 0.00 0.00 0.00 51 1009.7
20260509234550 91 229 0.0 4.0 0.00 0.00 0.00 52 1009.8
20260509234043 91 201 2.0 5.0 0.00 0.00 0.00 52 1010.1
20260509233541 92 0 1.0 5.0 0.00 0.00 0.00 51 1010.1
20260509233051 92 217 0.0 5.0 0.00 0.00 0.00 52 1010.1
20260509232542 92 209 1.0 6.0 0.00 0.00 0.00 53 1010.1
20260509232039 92 0 2.0 6.0 0.00 0.00 0.00 52 1010.1
20260509231549 92 226 2.0 5.0 0.00 0.00 0.00 53 1010.1
20260509231039 92 203 2.0 5.0 0.00 0.00 0.00 52 1010.1
20260509230539 92 0 0.0 1.0 0.00 0.00 0.00 52 1010.1
20260509230044 92 0 0.0 2.0 0.00 0.00 0.00 52 1010.0
20260509225539 92 0 0.0 4.0 0.00 0.00 0.00 50 1009.9
20260509225045 92 265 1.0 6.0 0.00 0.00 0.00 51 1009.9
20260509224547 92 191 2.0 6.0 0.00 0.00 0.00 53 1009.9
20260509224045 92 239 2.0 6.0 0.00 0.00 0.00 52 1009.9
20260509223541 91 208 1.0 6.0 0.00 0.00 0.00 52 1009.8
20260509223051 91 217 0.0 5.0 0.00 0.00 0.00 54 1009.9
20260509222541 91 16 2.0 5.0 0.00 0.00 0.00 52 1009.9
20260509222040 91 0 0.0 5.0 0.00 0.00 0.00 53 1009.9
20260509221547 91 0 1.0 5.0 0.00 0.00 0.00 53 1009.9
20260509221039 91 98 3.0 5.0 0.00 0.00 0.00 53 1009.9
20260509220539 91 0 1.0 8.0 0.00 0.00 0.00 54 1009.9
20260509220049 91 106 2.0 8.0 0.00 0.00 0.00 55 1010.1
20260509215539 92 214 1.0 6.0 0.00 0.00 0.00 53 1009.9
20260509215039 92 0 1.0 5.0 0.00 0.00 0.00 52 1009.9
20260509214549 92 0 1.0 5.0 0.00 0.00 0.00 53 1009.8
20260509214039 92 0 0.0 5.0 0.00 0.00 0.00 52 1010.0
20260509213539 92 266 0.0 5.0 0.00 0.00 0.00 52 1010.0
20260509213104 91 245 1.0 5.0 0.00 0.00 0.00 53 1010.0
20260509212540 92 0 2.0 5.0 0.00 0.00 0.00 51 1010.1
20260509212040 92 252 0.0 2.0 0.00 0.00 0.00 54 1010.2
20260509211553 91 249 0.0 9.0 0.00 0.00 0.00 53 1010.2
20260509211042 91 0 1.0 9.0 0.00 0.00 0.00 53 1010.1
20260509210538 90 246 0.0 7.0 0.00 0.00 0.00 55 1010.4
20260509210100 90 195 3.0 11.0 0.00 0.00 0.00 56 1010.3
20260509205539 89 0 2.0 11.0 0.00 0.00 0.00 56 1010.4
20260509205039 90 250 2.0 9.0 0.00 0.00 0.00 55 1010.7
20260509204549 90 0 0.0 9.0 0.00 0.00 0.00 56 1010.6
20260509204038 90 0 0.0 9.0 0.00 0.00 0.00 55 1010.8
20260509203539 91 53 0.0 2.0 0.00 0.00 0.00 55 1010.7
20260509203054 90 0 0.0 2.0 0.00 0.00 0.00 54 1011.0
20260509202539 90 0 0.0 2.0 0.00 0.00 0.00 56 1011.1
20260509202040 89 0 0.0 2.0 0.00 0.00 0.00 60 1011.1
20260509201552 89 0 0.0 1.0 0.00 0.00 0.00 59 1011.3